Tracking 27402 objects as of 2-Jun-2023
HD Live streaming from Space Station
objects crossing your sky now

STARLINK-4758

Track STARLINK-4758 now!
10-day predictions
STARLINK-4758 is classified as:


NORAD ID: 53820
Int'l Code: 2022-114C
Perigee: 546.2 km
Apogee: 547.6 km
Inclination: 53.2 °
Period: 95.4 minutes
Semi major axis: 6917 km
RCS: Unknown
Launch date: September 19, 2022
Source: United States (US)
Launch site: AIR FORCE EASTERN TEST RANGE (AFETR)
Your satellite tracking list
Your tracking list is empty




NASA's NSSDC Master Catalog

Two Line Element Set (TLE):
1 53820U 22114C   23153.43811635  .00000494  00000-0  49134-4 0  9995
2 53820  53.2153 164.0248 0000988  88.6929 271.4176 15.08841154 39626
Source of the keplerian elements: AFSPC